Date String (YYYY-MM-DD hh:mm:ss) UTC,Instrument flags,absolute air pressure of the measurement (hPa),sample flow rate (lpm),inlet stack bypass flow (lpm),air temperature of the measurement (°C),ambient temperature measured by the external sensor (°C),aerosol sample conditioner tube jacket temperature (°C),OPC LED temperature (°C),internal box temperature (°C),relative humidity of the measurement (%),span deviation,mass concentration of particles derived from Lorenz-Mie calculation of OPC scattering (μg/m³),mass concentration of particles derived from Lorenz-Mie calculation of OPC scattering (μg/m³),mass concentration of particles derived from Lorenz-Mie calculation of OPC scattering (μg/m³)
DateTimeUTC,F1_M11,P_M11,Q1_M11,Q2_M11,T1_M11,T2_M11,T3_M11,T4_M11,T5_M11,U1_M11,ZSPAN_M11,X0_M11,X2_M11,X1_M11
2023-06-03 14:00:00,SystemResetWarning,0831.4,5.00,000.00,030.4,028.8,000.0,038.8,032.0,27.6,0001.4,0009.62,0005.47,0004.77
2023-06-03 14:01:00,SystemResetWarning,0831.4,5.00,000.00,030.4,028.8,000.0,038.8,032.0,27.3,0001.4,0009.71,0005.49,0004.76
2023-06-03 14:02:00,SystemResetWarning,0831.5,4.99,000.00,030.4,028.8,000.0,038.8,032.0,27.5,0001.0,0009.81,0005.51,0004.76
2023-06-03 14:03:00,SystemResetWarning,0831.5,5.00,000.00,030.4,028.8,000.0,038.8,032.0,27.6,0001.0,0009.96,0005.54,0004.77
2023-06-03 14:04:00,SystemResetWarning,0831.5,5.01,000.00,030.4,028.8,000.0,038.8,032.0,27.5,0000.8,0010.07,0005.52,0004.77
2023-06-03 14:05:00,SystemResetWarning,0831.5,5.01,000.00,030.4,028.8,000.0,038.8,032.0,27.4,0001.3,0010.23,0005.48,0004.78
2023-06-03 14:06:00,SystemResetWarning,0831.5,5.00,000.00,030.4,028.8,000.0,038.8,032.0,27.2,0001.5,0010.90,0005.50,0004.78
2023-06-03 14:07:00,SystemResetWarning,0831.6,4.99,000.00,030.4,028.8,000.0,038.8,032.0,27.4,0001.5,0011.20,0005.50,0004.79
2023-06-03 14:08:00,SystemResetWarning,0831.6,4.99,000.00,030.4,028.8,000.0,038.8,032.0,27.5,0001.8,0011.23,0005.52,0004.79
2023-06-03 14:09:00,SystemResetWarning,0831.6,4.99,000.00,030.4,028.8,000.0,038.8,032.0,27.6,0001.7,0011.48,0005.58,0004.79
2023-06-03 14:10:00,SystemResetWarning,0831.6,5.00,000.00,030.4,028.9,000.0,038.8,032.0,27.7,0001.9,0011.39,0005.55,0004.77
2023-06-03 14:11:00,SystemResetWarning,0831.6,4.99,000.00,030.4,028.9,000.0,038.8,032.0,27.5,0001.6,0011.37,0005.55,0004.77
2023-06-03 14:12:00,SystemResetWarning,0831.6,5.00,000.00,030.4,028.9,000.0,038.8,032.0,27.6,0001.6,0011.46,0005.60,0004.78
2023-06-03 14:13:00,SystemResetWarning,0831.6,5.01,000.00,030.4,028.9,000.0,038.8,032.0,27.9,0002.0,0011.62,0005.62,0004.81
2023-06-03 14:14:00,SystemResetWarning,0831.6,5.01,000.00,030.4,028.9,000.0,038.8,032.0,27.6,0002.0,0011.99,0005.62,0004.82
2023-06-03 14:15:00,SystemResetWarning,0831.6,5.00,000.00,030.4,028.9,000.0,038.8,032.0,27.5,0002.6,0012.81,0005.63,0004.82
2023-06-03 14:16:00,SystemResetWarning,0831.6,5.01,000.00,030.4,028.9,000.0,038.8,032.0,27.5,0002.9,0012.85,0005.64,0004.81
2023-06-03 14:17:00,SystemResetWarning,0831.6,4.99,000.00,030.4,028.9,000.0,038.8,032.0,27.4,0003.0,0012.18,0005.63,0004.81
2023-06-03 14:18:00,SystemResetWarning,0831.6,4.99,000.00,030.4,028.9,000.0,038.8,032.0,27.3,0002.7,0011.56,0005.64,0004.81
2023-06-03 14:19:00,SystemResetWarning,0831.7,5.00,000.00,030.4,028.9,000.0,038.8,032.0,27.4,0002.4,0011.59,0005.62,0004.80
2023-06-03 14:20:00,SystemResetWarning,0831.7,5.01,000.00,030.4,028.9,000.0,038.8,032.0,27.5,0002.2,0011.52,0005.57,0004.81
2023-06-03 14:21:00,SystemResetWarning,0831.7,5.01,000.00,030.4,028.9,000.0,038.8,032.1,27.7,0001.9,0012.34,0005.59,0004.83
2023-06-03 14:22:00,SystemResetWarning,0831.7,4.99,000.00,030.4,028.9,000.0,038.8,032.1,27.8,0001.4,0012.24,0005.56,0004.82
2023-06-03 14:23:00,SystemResetWarning,0831.7,5.01,000.00,030.4,028.9,000.0,038.8,032.1,27.8,0001.3,0012.14,0005.51,0004.81
2023-06-03 14:24:00,SystemResetWarning,0831.7,5.00,000.00,030.5,028.9,000.0,038.8,032.1,28.0,0001.3,0012.36,0005.51,0004.80
2023-06-03 14:25:00,SystemResetWarning,0831.9,5.00,000.00,030.5,028.9,000.0,038.8,032.1,28.1,0001.6,0012.36,0005.53,0004.81
2023-06-03 14:26:00,SystemResetWarning,0832.1,5.00,000.00,030.4,028.9,000.0,038.9,032.0,28.0,0001.6,0011.72,0005.54,0004.84
2023-06-03 14:27:00,SystemResetWarning,0831.8,5.00,000.00,030.5,028.4,000.0,038.8,032.0,28.0,0001.5,0012.09,0005.57,0004.86
2023-06-03 14:28:00,SystemResetWarning,0831.8,5.00,000.00,030.4,026.7,000.0,038.7,031.7,28.0,0001.4,0011.97,0005.59,0004.89
2023-06-03 14:29:00,SystemResetWarning,0831.7,5.00,000.00,030.3,025.9,000.0,038.6,031.5,28.1,0001.5,0011.87,0005.54,0004.91
2023-06-03 14:30:00,SystemResetWarning,0831.7,5.01,000.00,030.2,026.0,000.0,038.6,031.4,28.5,0001.6,0012.13,0005.55,0004.93
2023-06-03 14:31:00,SystemResetWarning,0831.7,5.01,000.00,030.1,026.3,000.0,038.6,031.3,28.5,0001.8,0011.96,0005.58,0004.94
2023-06-03 14:32:00,SystemResetWarning,0831.7,4.99,000.00,030.1,026.6,000.0,038.6,031.4,28.3,0002.1,0011.28,0005.61,0004.96
2023-06-03 14:33:00,SystemResetWarning,0831.7,4.99,000.00,030.0,026.9,000.0,038.5,031.4,28.4,0002.1,0011.71,0005.68,0004.98
2023-06-03 14:34:00,SystemResetWarning,0831.8,5.00,000.00,030.0,027.2,000.0,038.5,031.4,28.6,0001.9,0011.88,0005.72,0005.01
2023-06-03 14:35:00,SystemResetWarning,0832.1,5.01,000.00,030.0,027.5,000.0,038.5,031.5,28.8,0001.7,0011.58,0005.71,0005.02
2023-06-03 14:36:00,SystemResetWarning,0832.3,5.00,000.00,030.0,027.7,000.0,038.5,031.5,28.7,0001.7,0011.24,0005.65,0004.98
2023-06-03 14:37:00,SystemResetWarning,0832.2,4.99,000.00,030.0,027.8,000.0,038.5,031.5,28.7,0001.3,0010.87,0005.61,0004.96
2023-06-03 14:38:00,SystemResetWarning,0831.8,5.00,000.00,030.0,028.0,000.0,038.5,031.5,28.4,0001.1,0010.46,0005.62,0004.94
2023-06-03 14:39:00,SystemResetWarning,0832.0,5.00,000.00,030.0,028.1,000.0,038.5,031.6,28.4,0001.0,0010.51,0005.58,0004.91
2023-06-03 14:40:00,SystemResetWarning,0831.8,5.00,000.00,030.0,028.2,000.0,038.5,031.6,28.4,0001.0,0010.48,0005.58,0004.90
2023-06-03 14:41:00,SystemResetWarning,0831.8,5.00,000.00,030.0,028.2,000.0,038.4,031.6,28.8,0001.0,0010.36,0005.57,0004.89
2023-06-03 14:42:00,SystemResetWarning,0831.8,5.00,000.00,030.0,028.3,000.0,038.4,031.6,29.1,0000.8,0010.75,0005.59,0004.89
2023-06-03 14:43:00,SystemResetWarning,0831.9,5.00,000.00,030.1,028.4,000.0,038.4,031.6,29.3,0000.3,0010.67,0005.56,0004.89
2023-06-03 14:44:00,SystemResetWarning,0831.9,5.00,000.00,030.1,028.4,000.0,038.4,031.6,29.1,0000.2,0010.38,0005.51,0004.87
2023-06-03 14:45:00,SystemResetWarning,0831.9,5.01,000.00,030.1,028.4,000.0,038.4,031.7,28.8,0000.5,0010.38,0005.56,0004.88
2023-06-03 14:46:00,SystemResetWarning,0831.9,5.01,000.00,030.1,028.5,000.0,038.4,031.7,28.9,0000.9,0010.46,0005.57,0004.86
2023-06-03 14:47:00,SystemResetWarning,0831.9,5.00,000.00,030.1,028.5,000.0,038.5,031.7,28.5,0000.8,0010.25,0005.57,0004.88
2023-06-03 14:48:00,SystemResetWarning,0832.0,4.99,000.00,030.1,028.5,000.0,038.5,031.7,28.4,0000.6,0010.26,0005.60,0004.90
2023-06-03 14:49:00,SystemResetWarning,0831.9,5.00,000.00,030.1,028.5,000.0,038.5,031.7,28.4,0000.6,0010.01,0005.56,0004.91
2023-06-03 14:50:00,SystemResetWarning,0832.0,5.00,000.00,030.1,028.6,000.0,038.5,031.7,28.5,0000.7,0009.94,0005.60,0004.92
2023-06-03 14:51:00,SystemResetWarning,0832.0,5.00,000.00,030.1,028.6,000.0,038.5,031.7,28.6,0000.7,0010.05,0005.63,0004.93
2023-06-03 14:52:00,SystemResetWarning,0832.0,5.00,000.00,030.2,028.6,000.0,038.5,031.8,28.7,0000.8,0010.06,0005.65,0004.95
2023-06-03 14:53:00,SystemResetWarning,0832.0,5.00,000.00,030.2,028.6,000.0,038.5,031.8,29.1,0001.0,0009.43,0005.65,0004.96
2023-06-03 14:54:00,SystemResetWarning,0832.0,5.00,000.00,030.2,028.6,000.0,038.5,031.8,28.9,0001.7,0009.43,0005.66,0004.96
2023-06-03 14:55:00,SystemResetWarning,0832.0,5.00,000.00,030.2,028.6,000.0,038.5,031.8,29.1,0001.9,0010.70,0005.69,0004.99
2023-06-03 14:56:00,SystemResetWarning,0832.1,5.01,000.00,030.2,028.7,000.0,038.5,031.8,29.1,0001.8,0011.42,0005.70,0005.02
2023-06-03 14:57:00,SystemResetWarning,0832.0,5.00,000.00,030.2,028.7,000.0,038.5,031.8,29.4,0001.7,0011.38,0005.71,0005.06
2023-06-03 14:58:00,SystemResetWarning,0832.0,5.00,000.00,030.2,028.7,000.0,038.5,031.8,29.4,0001.1,0011.64,0005.82,0005.09
2023-06-03 14:59:00,SystemResetWarning,0832.0,5.00,000.00,030.2,028.7,000.0,038.5,031.9,29.1,0001.0,0011.83,0005.91,0005.12
